[[{"header":{"parameterUnit":"m.s-1","parameterCategory":1,"la1":30.2991,"la2":30.254,"lo1":-89.0895,"lo2":-89.0444,"dy":0.0017,"dx":0.0017,"nx":28,"ny":28,"refTime":"2025-08-05T21:00:00:Z","depth":0,"parameterNumber":2,"parameterNumberName":"U-component_of_WINDS"},"data":[0,0,0,0,0,0,0,0,0,0,0,0,0,0,0,0,0,0,0,0,0,0,0,0,0,0,0,0,0,0,0,0,0,0,0,0,0,0,0,0,0,0,0,0,0,0,0,0,0,0,0,0,0,0,0,0,0,0,-1.0545,-1.0546,0,-1.0567,-1.0567,-1.0567,-1.0568,-1.0568,-1.0568,-1.0567,-1.059,-1.0591,-1.0592,0,0,0,0,0,0,0,0,0,0,0,0,0,-1.0508,-1.0509,-1.0545,-1.0546,-1.0546,-1.0567,-1.0567,-1.0567,-1.0568,-1.0568,-1.0568,-1.0567,-1.059,-1.0591,-1.0592,0,0,0,0,0,0,0,0,0,0,0,0,0,-1.0526,-1.0509,-1.0545,-1.0549,-1.0549,-1.0567,-1.0567,-1.0567,-1.0568,-1.0568,-1.0567,-1.0567,-1.059,-1.0591,-1.0592,-1.0608,0,0,-1.0596,-1.0597,0,0,0,0,0,0,0,0,-1.0525,-1.0528,-1.0548,-1.0549,-1.0549,-1.0564,-1.0562,-1.0581,-1.0568,-1.0561,-1.0567,-1.0567,-1.0582,-1.0584,-1.0589,-1.0609,-1.061,-1.0596,-1.0597,-1.0598,-1.0598,0,0,0,0,0,0,0,-1.0524,-1.0527,-1.0554,-1.0548,-1.0549,-1.055,-1.0552,-1.0566,-1.0574,-1.0562,-1.0562,-1.0564,-1.0582,-1.0588,-1.0589,-1.061,-1.0596,-1.0597,-1.0598,-1.0599,-1.0645,-1.0646,0,0,0,0,0,0,-1.0522,-1.0526,-1.0553,-1.0554,-1.0536,-1.0551,-1.0554,-1.056,-1.0573,-1.0575,-1.0565,-1.0564,-1.0586,-1.0588,-1.059,-1.061,-1.0598,-1.0599,-1.0599,-1.0645,-1.0645,-1.0646,0,0,0,0,0,0,-1.0521,-1.0524,-1.0552,-1.054,-1.0544,-1.0552,-1.0559,-1.0561,-1.0566,-1.0576,-1.0577,-1.0568,-1.0585,-1.0588,-1.0604,-1.061,-1.0599,-1.06,-1.0644,-1.0645,-1.0646,-1.0648,0,0,0,0,0,0,-1.052,-1.0524,-1.0529,-1.054,-1.0544,-1.0564,-1.056,-1.0561,-1.0568,-1.0568,-1.0579,-1.0581,-1.0585,-1.0602,-1.0605,-1.0612,-1.0601,-1.0644,-1.0645,-1.0645,-1.0648,-1.0649,-1.065,0,0,0,0,0,-1.0519,-1.0529,-1.0529,-1.0533,-1.0551,-1.0565,-1.0567,-1.0572,-1.0568,-1.0574,-1.0581,-1.0581,-1.0609,-1.0603,-1.0607,-1.0614,-1.0643,-1.0644,-1.0645,-1.0647,-1.0649,-1.065,0,0,0,0,0,0,-1.0518,-1.053,-1.0531,-1.0545,-1.0554,-1.0565,-1.0572,-1.0573,-1.0583,-1.0583,-1.0588,-1.0591,-1.0606,-1.0612,-1.0605,-1.0631,-1.0626,-1.0628,-1.0626,-1.0628,-1.0629,-1.0627,-1.0602,0,0,0,0,0,-1.052,-1.053,-1.054,-1.0552,-1.0556,-1.0563,-1.057,-1.0572,-1.0582,-1.0586,-1.0593,-1.0603,-1.0614,-1.0622,-1.0633,-1.0649,-1.0652,-1.0656,-1.0658,-1.0659,-1.066,-1.067,-1.0672,-1.0649,-1.0649,-1.0649,0,0,-1.0523,-1.0531,-1.0537,-1.0552,-1.0559,-1.0569,-1.0566,-1.0577,-1.0586,-1.0587,-1.0602,-1.0608,-1.062,-1.0636,-1.0643,-1.0641,-1.0667,-1.066,-1.0661,-1.0661,-1.0671,-1.0673,-1.0675,-1.065,-1.065,-1.065,0,0,-1.0535,-1.0541,-1.0552,-1.056,-1.0571,-1.0576,-1.0579,-1.059,-1.0594,-1.0609,-1.0611,-1.0621,-1.064,-1.0649,-1.0655,-1.0672,-1.0673,-1.0676,-1.0682,-1.0692,-1.0694,-1.0695,-1.0701,-1.0704,-1.0677,-1.0677,-1.0677,0,-1.0537,-1.0552,-1.0557,-1.0569,-1.0576,-1.0578,-1.059,-1.0597,-1.0611,-1.0616,-1.0614,-1.0639,-1.0647,-1.0665,-1.067,-1.0675,-1.0679,-1.0674,-1.0693,-1.0695,-1.0696,-1.0702,-1.0704,-1.0678,-1.0678,-1.0678,-1.0677,0,-1.0556,-1.0566,-1.0574,-1.0587,-1.0595,-1.0607,-1.0614,-1.0622,-1.0625,-1.0631,-1.0647,-1.0657,-1.067,-1.0675,-1.0678,-1.0694,-1.0693,-1.0692,-1.0687,-1.0699,-1.0704,-1.0707,-1.0678,-1.0678,-1.0678,-1.0678,0,0,-1.0565,-1.0583,-1.0585,-1.0592,-1.0605,-1.0614,-1.0627,-1.064,-1.0646,-1.0657,-1.0667,-1.0685,-1.0684,-1.0692,-1.0696,-1.0705,-1.0718,-1.0703,-1.0703,-1.0705,-1.0738,-1.0738,-1.074,-1.0719,-1.072,-1.072,-1.0737,0,-1.0578,-1.0599,-1.0604,-1.0622,-1.0633,-1.0637,-1.0648,-1.0658,-1.0664,-1.0675,-1.0682,-1.0694,-1.0693,-1.0697,-1.0706,-1.0714,-1.0725,-1.0714,-1.073,-1.073,-1.0725,-1.0743,-1.0743,-1.0758,-1.0739,-1.0739,-1.074,0,-1.0595,-1.0605,-1.0624,-1.0637,-1.0642,-1.0651,-1.0664,-1.0675,-1.0687,-1.0691,-1.07,-1.0704,-1.0718,-1.0714,-1.0734,-1.0726,-1.0734,-1.0739,-1.074,-1.074,-1.0735,-1.0744,-1.0763,-1.0765,-1.0743,-1.0743,-1.0743,0,-1.06,-1.0619,-1.0633,-1.0639,-1.0654,-1.0661,-1.0668,-1.068,-1.0688,-1.07,-1.0705,-1.0719,-1.0726,-1.0737,-1.0745,-1.0741,-1.0765,-1.0761,-1.0769,-1.0769,-1.0773,-1.0772,-1.0792,-1.0779,-1.0779,-1.0779,-1.0778,0,-1.0612,-1.0624,-1.0636,-1.0644,-1.0658,-1.0665,-1.0678,-1.0686,-1.0697,-1.0707,-1.0712,-1.0722,-1.0732,-1.0744,-1.0751,-1.0767,-1.077,-1.0775,-1.0776,-1.0774,-1.0773,-1.0778,-1.0777,-1.0779,-1.0779,-1.0779,-1.0779,0,-1.062,-1.0628,-1.0643,-1.0658,-1.0661,-1.0671,-1.0683,-1.0692,-1.07,-1.0713,-1.0717,-1.0729,-1.0743,-1.0753,-1.0771,-1.0776,-1.0793,-1.0794,-1.0789,-1.0789,-1.0797,-1.0796,-1.082,-1.0824,-1.0808,-1.0808,-1.0808,0,-1.0627,-1.0636,-1.0651,-1.0658,-1.0665,-1.0677,-1.0685,-1.0694,-1.0703,-1.0718,-1.0726,-1.074,-1.0752,-1.0776,-1.0786,-1.0801,-1.0803,-1.081,-1.0805,-1.0802,-1.0802,-1.0801,-1.0803,-1.0811,-1.0811,-1.0811,-1.0811,0,-1.0639,-1.0643,-1.0654,-1.0667,-1.0677,-1.0688,-1.0699,-1.0705,-1.0716,-1.0726,-1.074,-1.075,-1.0769,-1.0784,-1.08,-1.0808,-1.0812,-1.0813,-1.0816,-1.0813,-1.0809,-1.0811,-1.079,-1.0812,-1.0812,-1.0812,-1.0812,-1.0812,-1.0646,-1.0654,-1.0666,-1.0679,-1.0689,-1.0699,-1.0709,-1.0718,-1.073,-1.0746,-1.0751,-1.0766,-1.078,-1.0802,-1.081,-1.0824,-1.0823,-1.0826,-1.0827,-1.0828,-1.0828,-1.0808,-1.0827,-1.0827,-1.0827,-1.0827,-1.0827,0,-1.0658,-1.0666,-1.0678,-1.0693,-1.0704,-1.0706,-1.0719,-1.0728,-1.0741,-1.0754,-1.0766,-1.0784,-1.0799,-1.0811,-1.0827,-1.0835,-1.0837,-1.0839,-1.0838,-1.084,-1.0828,-1.0824,-1.0837,-1.0837,-1.0837,-1.0837,-1.0837,-1.0837,-1.0665,-1.0679,-1.0685,-1.0705,-1.0714,-1.0728,-1.0736,-1.0746,-1.0756,-1.0775,-1.0787,-1.0796,-1.0808,-1.0825,-1.084,-1.0843,-1.0849,-1.085,-1.0854,-1.0842,-1.0841,-1.0839,-1.0836,-1.0851,-1.0851,-1.0865,-1.0865,-1.0865]},{"header":{"parameterUnit":"m.s-1","parameterCategory":1,"la1":30.2991,"la2":30.254,"lo1":-89.0895,"lo2":-89.0444,"dy":0.0017,"dx":0.0017,"nx":28,"ny":28,"refTime":"2025-08-05T21:00:00:Z","depth":0,"parameterNumber":3,"parameterNumberName":"V-component_of_WINDS"},"data":[0,0,0,0,0,0,0,0,0,0,0,0,0,0,0,0,0,0,0,0,0,0,0,0,0,0,0,0,0,0,0,0,0,0,0,0,0,0,0,0,0,0,0,0,0,0,0,0,0,0,0,0,0,0,0,0,0,0,2.201,2.2008,0,2.1826,2.1824,2.1822,2.1749,2.175,2.175,2.1751,2.1555,2.1549,2.1544,0,0,0,0,0,0,0,0,0,0,0,0,0,2.2295,2.229,2.2011,2.2008,2.2006,2.1826,2.1824,2.1821,2.1749,2.175,2.175,2.1751,2.1557,2.155,2.1543,0,0,0,0,0,0,0,0,0,0,0,0,0,2.2147,2.2289,2.2011,2.1948,2.1941,2.1827,2.1823,2.182,2.1749,2.175,2.175,2.1751,2.1559,2.1551,2.1542,2.1474,0,0,2.1516,2.1512,0,0,0,0,0,0,0,0,2.2155,2.2137,2.196,2.1953,2.1944,2.1811,2.1852,2.1704,2.1749,2.1822,2.1751,2.1751,2.1639,2.1624,2.1587,2.1465,2.1457,2.1515,2.151,2.1507,2.1504,0,0,0,0,0,0,0,2.2166,2.2144,2.1937,2.1957,2.1948,2.1928,2.1908,2.1824,2.1728,2.1815,2.181,2.1789,2.1635,2.1596,2.1582,2.1454,2.1516,2.1508,2.1503,2.1499,2.1266,2.1264,0,0,0,0,0,0,2.2187,2.2153,2.1943,2.1932,2.2054,2.1922,2.1899,2.1853,2.1729,2.1711,2.1789,2.1786,2.161,2.1592,2.1575,2.1487,2.1507,2.1499,2.1494,2.1267,2.1265,2.1264,0,0,0,0,0,0,2.2194,2.2169,2.195,2.2041,2.2011,2.1916,2.1865,2.1849,2.181,2.1709,2.1691,2.1767,2.161,2.1587,2.15,2.1479,2.1495,2.1487,2.1268,2.1266,2.1265,2.131,0,0,0,0,0,0,2.2202,2.2172,2.2146,2.2041,2.2007,2.1881,2.1864,2.1845,2.1796,2.1792,2.1684,2.1666,2.1609,2.1513,2.1492,2.1468,2.148,2.1269,2.1267,2.1265,2.131,2.131,2.1311,0,0,0,0,0,2.2213,2.2165,2.2146,2.2121,2.1973,2.188,2.186,2.1797,2.1795,2.1768,2.1703,2.167,2.1486,2.1505,2.148,2.1453,2.127,2.1268,2.1265,2.131,2.131,2.1311,0,0,0,0,0,0,2.2268,2.215,2.2127,2.2045,2.1973,2.1868,2.1831,2.1799,2.1725,2.1723,2.1646,2.1622,2.1541,2.1488,2.1512,2.138,2.1375,2.1368,2.1418,2.1417,2.1418,2.1431,2.1473,0,0,0,0,0,2.2272,2.2207,2.2107,2.2044,2.2009,2.1927,2.1883,2.1841,2.1763,2.1731,2.166,2.1583,2.1508,2.146,2.1385,2.1303,2.1277,2.1272,2.1272,2.1273,2.1267,2.1218,2.1215,2.1256,2.1256,2.1256,0,0,2.2277,2.2204,2.2168,2.2053,2.1993,2.1926,2.1901,2.1832,2.1781,2.172,2.1634,2.1579,2.1488,2.1404,2.1363,2.1357,2.125,2.127,2.1271,2.1264,2.1216,2.1212,2.1208,2.1254,2.1255,2.1255,0,0,2.2252,2.2191,2.2132,2.2072,2.1982,2.1927,2.1914,2.1813,2.1775,2.1688,2.1641,2.1578,2.145,2.1388,2.1339,2.1292,2.1258,2.1269,2.127,2.1224,2.122,2.1217,2.1199,2.1194,2.1264,2.1264,2.1264,0,2.2269,2.2168,2.2105,2.2038,2.1988,2.1933,2.1871,2.1816,2.1705,2.1671,2.1667,2.1506,2.1441,2.134,2.1329,2.1292,2.1272,2.1281,2.1226,2.1222,2.1218,2.12,2.1194,2.1266,2.1266,2.1265,2.1265,0,2.2193,2.2124,2.2087,2.1983,2.193,2.1866,2.1791,2.1744,2.1707,2.1652,2.1564,2.1484,2.1392,2.1366,2.1328,2.1259,2.1259,2.1242,2.1235,2.1217,2.1199,2.1192,2.1269,2.1268,2.1267,2.1267,0,0,2.2197,2.2061,2.2048,2.2,2.1897,2.1841,2.1774,2.1687,2.1647,2.1572,2.1513,2.1407,2.1391,2.1336,2.1291,2.1251,2.1217,2.1238,2.1234,2.1236,2.1136,2.1149,2.1142,2.1195,2.1193,2.1192,2.1143,0,2.2157,2.2037,2.1979,2.1883,2.1818,2.1765,2.1707,2.1636,2.1584,2.1519,2.146,2.1386,2.1371,2.1337,2.1295,2.123,2.1196,2.1233,2.1137,2.1134,2.1161,2.1132,2.1145,2.1103,2.1136,2.1134,2.1133,0,2.2095,2.2023,2.1922,2.1827,2.1797,2.1746,2.1661,2.16,2.1519,2.1483,2.1423,2.1379,2.1305,2.1305,2.12,2.1227,2.1184,2.1147,2.1143,2.1131,2.1132,2.1118,2.1088,2.1081,2.1122,2.1123,2.1123,0,2.2107,2.1985,2.1908,2.1869,2.1756,2.1721,2.1672,2.1592,2.1543,2.1468,2.1435,2.1352,2.1306,2.1242,2.1176,2.1182,2.1077,2.1072,2.1044,2.1046,2.1023,2.1025,2.0985,2.0998,2.0998,2.0998,2.0999,0,2.2068,2.2008,2.1912,2.1865,2.1796,2.1729,2.1661,2.1608,2.1537,2.1477,2.1426,2.137,2.1287,2.1221,2.1169,2.109,2.107,2.1038,2.1024,2.1041,2.1046,2.1011,2.1012,2.0997,2.0997,2.0997,2.0998,0,2.2069,2.2003,2.1916,2.1817,2.179,2.1744,2.1658,2.1609,2.1555,2.148,2.1458,2.1372,2.1292,2.122,2.1113,2.1078,2.0997,2.0981,2.1025,2.1017,2.0994,2.0996,2.0929,2.0916,2.094,2.0939,2.0939,0,2.2048,2.2001,2.1898,2.1855,2.1808,2.1739,2.169,2.1621,2.1572,2.1475,2.1438,2.1354,2.1284,2.1157,2.1083,2.1001,2.0982,2.0964,2.0969,2.0988,2.098,2.0983,2.0978,2.0964,2.0964,2.0964,2.0964,0,2.2018,2.1988,2.192,2.184,2.1783,2.1716,2.1648,2.1615,2.1533,2.148,2.1398,2.1344,2.1235,2.1152,2.1062,2.1008,2.0972,2.0963,2.0952,2.0969,2.0996,2.098,2.1025,2.0965,2.0965,2.0964,2.0964,2.0964,2.2006,2.1962,2.1883,2.1808,2.175,2.1688,2.1637,2.1578,2.1509,2.1417,2.138,2.1296,2.1215,2.109,2.1038,2.097,2.0963,2.0948,2.0943,2.094,2.0943,2.1009,2.0953,2.0953,2.0953,2.0953,2.0953,0,2.1973,2.192,2.1852,2.1759,2.17,2.1674,2.1597,2.1548,2.1476,2.1405,2.1337,2.1242,2.1162,2.1083,2.0997,2.0958,2.0939,2.0938,2.0939,2.0928,2.0954,2.0972,2.0955,2.0955,2.0955,2.0955,2.0955,2.0955,2.1949,2.1872,2.1833,2.1726,2.1672,2.1592,2.155,2.1492,2.1434,2.1332,2.1266,2.1216,2.114,2.1049,2.0973,2.0952,2.0922,2.0925,2.0899,2.0925,2.0926,2.0926,2.0943,2.092,2.092,2.0878,2.0878,2.0878]}]]